SWA2337 KSAN-KSJC

Flight info

Callsign SWA2337
Flight time N/A
Altitude 36000
Route PADRZ2 IKAYE TESEA SCTRR TROXX SILCN6
Aircraft B38M/M-SADE2E3GHIJ4J7P2RWZ/LB1D1

Departure

Time 2026-05-03 20:40
Airport San Diego International Airport (KSAN)

Arrival

Time N/A
Airport Norman Y. Mineta San Jose International Airport (KSJC)
Time Latitude Longitude Altitude Speed Heading
2026-05-03 20:25 32.73340 -117.19777 22 ft 0 kts 286°
2026-05-03 20:30 32.73340 -117.19776 22 ft 2 kts 286°
2026-05-03 20:30 32.73339 -117.19748 22 ft 3 kts 253°
2026-05-03 20:30 32.73343 -117.19727 23 ft 4 kts 288°
2026-05-03 20:31 32.73333 -117.19720 23 ft 4 kts 19°
2026-05-03 20:31 32.73312 -117.19729 22 ft 1 kts 20°
2026-05-03 20:35 32.73317 -117.19727 23 ft 4 kts 20°
2026-05-03 20:36 32.73387 -117.19695 27 ft 14 kts 29°
2026-05-03 20:36 32.73412 -117.19608 26 ft 12 kts 102°
2026-05-03 20:36 32.73385 -117.19507 28 ft 14 kts 107°
2026-05-03 20:36 32.73356 -117.19384 26 ft 18 kts 107°
2026-05-03 20:37 32.73314 -117.19220 26 ft 23 kts 106°
2026-05-03 20:37 32.73270 -117.19032 27 ft 24 kts 106°
2026-05-03 20:37 32.73221 -117.18831 28 ft 26 kts 106°
2026-05-03 20:37 32.73168 -117.18616 27 ft 29 kts 106°
2026-05-03 20:38 32.73111 -117.18376 25 ft 31 kts 105°
2026-05-03 20:38 32.73048 -117.18119 20 ft 34 kts 106°
2026-05-03 20:38 32.72980 -117.17841 20 ft 24 kts 105°
2026-05-03 20:38 32.72951 -117.17702 19 ft 18 kts 92°
2026-05-03 20:39 32.72992 -117.17574 26 ft 13 kts 32°
2026-05-03 20:39 32.73018 -117.17574 25 ft 1 kts 297°
2026-05-03 20:39 32.73038 -117.17646 21 ft 24 kts 287°
2026-05-03 20:39 32.73160 -117.18153 24 ft 101 kts 285°
2026-05-03 20:40 32.73414 -117.19190 63 ft 157 kts 287°
2026-05-03 20:40 32.73745 -117.20500 694 ft 169 kts 286°
2026-05-03 20:40 32.74129 -117.21813 1737 ft 164 kts 288°
2026-05-03 20:40 32.74497 -117.23105 2507 ft 172 kts 287°
2026-05-03 20:41 32.74912 -117.24560 2872 ft 203 kts 291°
2026-05-03 20:41 32.75800 -117.25995 3344 ft 229 kts 313°
2026-05-03 20:41 32.76926 -117.27455 3941 ft 249 kts 309°
2026-05-03 20:41 32.78073 -117.29100 4583 ft 267 kts 306°
2026-05-03 20:42 32.79231 -117.30860 5443 ft 273 kts 304°
2026-05-03 20:42 32.80426 -117.32658 6257 ft 282 kts 304°
2026-05-03 20:42 32.81660 -117.34514 7008 ft 290 kts 304°
2026-05-03 20:42 32.82899 -117.36402 7931 ft 290 kts 303°
2026-05-03 20:43 32.84138 -117.38307 8835 ft 293 kts 303°
2026-05-03 20:43 32.85384 -117.40234 9752 ft 295 kts 303°
2026-05-03 20:43 32.86645 -117.42192 10462 ft 304 kts 302°
2026-05-03 20:43 32.87961 -117.44238 10990 ft 318 kts 302°
2026-05-03 20:44 32.89325 -117.46360 11710 ft 325 kts 302°
2026-05-03 20:44 32.90698 -117.48499 12641 ft 326 kts 302°
2026-05-03 20:44 32.92078 -117.50649 13531 ft 329 kts 302°
2026-05-03 20:44 32.93478 -117.52830 14399 ft 332 kts 301°
2026-05-03 20:45 32.94880 -117.55015 15308 ft 332 kts 301°
2026-05-03 20:45 32.96262 -117.57170 16213 ft 333 kts 300°
2026-05-03 20:45 32.97669 -117.59365 17089 ft 334 kts 300°
2026-05-03 20:45 32.99101 -117.61599 17971 ft 335 kts 299°
2026-05-03 20:46 33.00501 -117.63784 18740 ft 337 kts 299°
2026-05-03 20:46 33.01925 -117.66009 19439 ft 339 kts 298°
2026-05-03 20:46 33.02409 -117.66766 19673 ft 340 kts 298°
2026-05-03 20:47 33.08206 -117.74789 22222 ft 357 kts 309°
2026-05-03 20:47 33.10101 -117.76727 22862 ft 360 kts 309°
2026-05-03 20:47 33.12007 -117.78673 23501 ft 362 kts 309°
2026-05-03 20:48 33.13931 -117.80634 24044 ft 364 kts 309°
2026-05-03 20:48 33.15862 -117.82601 24567 ft 367 kts 309°
2026-05-03 20:48 33.17782 -117.84558 25069 ft 369 kts 309°
2026-05-03 20:48 33.19687 -117.86597 25574 ft 365 kts 304°
2026-05-03 20:49 33.21471 -117.88775 26037 ft 368 kts 304°
2026-05-03 20:49 33.23280 -117.90955 26536 ft 371 kts 304°
2026-05-03 20:49 33.25105 -117.93140 27023 ft 373 kts 304°
2026-05-03 20:49 33.26947 -117.95339 27505 ft 375 kts 304°
2026-05-03 20:50 33.28801 -117.97549 27975 ft 378 kts 304°
2026-05-03 20:50 33.30667 -117.99776 28440 ft 380 kts 304°
2026-05-03 20:50 33.32543 -118.02014 28899 ft 382 kts 304°
2026-05-03 20:50 33.34430 -118.04268 29345 ft 385 kts 304°
2026-05-03 20:51 33.36327 -118.06535 29790 ft 387 kts 304°
2026-05-03 20:51 33.38235 -118.08816 30197 ft 389 kts 304°
2026-05-03 20:51 33.40151 -118.11109 30572 ft 391 kts 304°
2026-05-03 20:51 33.42076 -118.13415 30964 ft 392 kts 303°
2026-05-03 20:52 33.44007 -118.15727 31334 ft 394 kts 303°
2026-05-03 20:52 33.45946 -118.18053 31707 ft 395 kts 303°
2026-05-03 20:52 33.47894 -118.20389 32077 ft 397 kts 303°
2026-05-03 20:52 33.49849 -118.22736 32445 ft 399 kts 303°
2026-05-03 20:53 33.51812 -118.25094 32873 ft 399 kts 303°
2026-05-03 20:53 33.53761 -118.27437 33384 ft 396 kts 303°
2026-05-03 20:53 33.55704 -118.29775 33907 ft 394 kts 302°
2026-05-03 20:53 33.57630 -118.32092 34351 ft 392 kts 302°
2026-05-03 20:54 33.59556 -118.34411 34713 ft 392 kts 302°
2026-05-03 20:54 33.63397 -118.39044 35369 ft 392 kts 303°
2026-05-03 20:54 33.65321 -118.41365 35690 ft 392 kts 303°
2026-05-03 20:55 33.67242 -118.43686 35965 ft 393 kts 303°
2026-05-03 20:55 33.69085 -118.45914 36033 ft 394 kts 303°
2026-05-03 20:55 33.72925 -118.50560 36025 ft 391 kts 303°
2026-05-03 20:56 33.76756 -118.55201 36024 ft 391 kts 303°
2026-05-03 20:56 33.80596 -118.59859 36026 ft 392 kts 303°
2026-05-03 20:57 33.84435 -118.64523 36028 ft 393 kts 303°
2026-05-03 20:57 33.88249 -118.69162 36022 ft 393 kts 303°
2026-05-03 20:58 33.92099 -118.73852 36020 ft 394 kts 303°
2026-05-03 20:58 33.95949 -118.78548 36019 ft 394 kts 303°
2026-05-03 20:59 33.99804 -118.83256 36022 ft 394 kts 303°
2026-05-03 20:59 34.03657 -118.87969 36024 ft 395 kts 303°
2026-05-03 21:00 34.06237 -118.91127 36031 ft 396 kts 303°
2026-05-03 21:00 34.11385 -118.97436 36044 ft 396 kts 303°
2026-05-03 21:01 34.14615 -119.01367 36042 ft 397 kts 304°
2026-05-03 21:01 34.18583 -119.06079 36030 ft 398 kts 304°
2026-05-03 21:02 34.22498 -119.10745 36022 ft 398 kts 304°
2026-05-03 21:02 34.26439 -119.15448 36022 ft 398 kts 304°
2026-05-03 21:03 34.30378 -119.20156 36034 ft 398 kts 303°
2026-05-03 21:03 34.34308 -119.24860 36032 ft 398 kts 303°
2026-05-03 21:04 34.38238 -119.29572 36036 ft 398 kts 303°
2026-05-03 21:04 34.42179 -119.34302 36017 ft 398 kts 303°
2026-05-03 21:05 34.46110 -119.39026 36010 ft 398 kts 303°
2026-05-03 21:05 34.50023 -119.43736 35981 ft 397 kts 303°
2026-05-03 21:06 34.53918 -119.48432 35987 ft 397 kts 303°
2026-05-03 21:06 34.57837 -119.53161 35990 ft 397 kts 303°
2026-05-03 21:07 34.61115 -119.57123 35995 ft 398 kts 303°
2026-05-03 21:07 34.61752 -119.57895 36006 ft 398 kts 303°
2026-05-03 21:08 34.69703 -119.67526 35980 ft 396 kts 303°
2026-05-03 21:08 34.73603 -119.72260 35970 ft 396 kts 303°
2026-05-03 21:09 34.76184 -119.75398 35990 ft 396 kts 303°
2026-05-03 21:09 34.81497 -119.81863 35980 ft 394 kts 303°
2026-05-03 21:10 34.85361 -119.86574 35981 ft 394 kts 303°
2026-05-03 21:10 34.89253 -119.91325 35971 ft 393 kts 302°